sat.trackr.live / text

‹ back to catalog

STARLINK-5733

NORAD 56925 · 2023-083BB

PAYLOAD ACTIVE UNKNOWN

§ Identity

Operator
Country
US
Launch date
2023-06-12
Launch site
AFETR
Launch vehicle
Mass (kg)
RCS (m²)

Purposes: comms

External: N2YO · Heavens-Above · Gunter

§ Orbital elements

Epoch: 2026-05-24T23:16:11.546976Z

Period
94.27 min
Inclination
43.0050°
Eccentricity
0.0001141
Mean motion
15.27574124 rev/d
Perigee alt
482.3 km
Apogee alt
483.8 km
Semi-major
6,861.2 km
B*
5.5932e-6
RAAN
359.9331°
Arg perigee
267.6864°
Mean anomaly
92.3857°
Rev number
16,346

§ Raw data

STARLINK-57331 56925U 23083BB  26144.96957809 -.00000108  00000+0  55932-5 0  99912 56925  43.0050 359.9331 0001141 267.6864  92.3857 15.27574124163462

JSON: /api/v1/satellites/56925 · /tle

For live sub-satellite position, see the globe view (requires WebGL).

§ Visibility from observer

Set your observer location to see the next 7 days of passes ≥ 10°. The values pass through the URL so the page stays shareable.

No JS? Fill the form by hand. The geolocation button needs JavaScript.